Location: Colonia Mina de C?rbuni
(46.1667°N, 22.7167°E)
Time: 20:43:58
(UTC+00:00)

Tiros 1 - Pass Details

Date: 25 April 2024
Orbit: 624 x 657 km, 48.4° (Epoch: 28 May)

Event Time Altitude Azimuth Distance (km) Brightness Sun altitude
Rises 03:53:02 0° 279° (W) 2,907 9.9 3.8°
Reaches altitude 10° 03:57:00 10° 245° (WSW) 1,991 9.1 4.5°
Maximum altitude 03:58:23 11° 227° (SW) 1,906 9.1 4.7°
Drops below altitude 10° 03:59:46 10° 210° (SSW) 1,986 9.3 4.9°
Sets 04:03:43 0° 176° (S) 2,887 10.4 5.6°
